Startseite
Über Mich
AHP4
Galerie
Sehschlangen
Tourenbuch
Bookmarks
Elektronik
Bewertung
Geschichten
[Tagesmessung] [Jahreswerte] [Information]

Messwerte vom 10.02.2022

Die letzten Messwerte von 23:58:46 Uhr:
KategorieMesswert
Temperatur [°C]4
Luftdruck [mBar]1002
Sonneneinstrahlung0
Wind [km/h]2 aus Süd
Niederschlag [l/m²]0
rel.Luftfeucht.96.6%
CO2 [ppm]559

Diagramme
Messwerte vom 10.02.2022
Tagesaggregation
KategorieMinimumMaximumSchnittSumme
Temperatur [°C]496.7229
Luftdruck [mBar]100010061002.3958
Sonneneinstrahlung22368.9104
Wind [km/h]23
rF [%]85.396.692.15
Niederschlag [l/m²]0
CO2 [ppm]401679550.8
Einordnung alsKalter Tag

Messungen an benachbarten Tagen: Zur Jahresaggregation 2022
Tabelle aller Messwerte
UhrzeitTemperatur [°C]Luftdruck [mBar]SonneWind [km/h]RichtungRegen [l/m²]rF [%]CO2 [ppm]
00:01:47 8 1006 0 0 S 0 93.1 563
00:04:49 8 1006 0 0 SO 0 93.2 569
00:07:48 8 1006 0 0 SW 0 93.2 568
00:10:47 8 1006 0 2 S 0 93.3 572
00:13:49 8 1006 0 1 SO 0 93.4 572
00:16:47 8 1006 0 0 S 0 93.6 564
00:19:47 8 1006 0 1 O 0 93.6 566
00:22:47 8 1006 0 1 S 0 93.6 575
00:25:47 8 1006 0 1 S 0 93.6 575
00:28:50 7 1006 0 4 SO 0 93.6 581
00:31:47 8 1005 0 1 SO 0 93.6 574
00:34:46 7 1006 0 2 S 0 93.5 568
00:37:50 8 1006 0 3 SO 0 93.5 572
00:40:46 8 1006 0 3 S 0 93.4 577
00:43:47 8 1006 0 3 SW 0 93.3 583
00:46:46 8 1006 0 1 S 0 93.3 583
00:49:48 8 1006 0 4 S 0 93.2 585
00:52:46 8 1005 0 1 SO 0 93.1 583
00:55:47 8 1005 0 2 S 0 93.1 580
00:58:47 8 1006 0 1 SO 0 93.1 586
01:01:48 8 1006 0 1 NW 0 93 587
01:04:50 8 1005 0 3 NW 0 93 584
01:07:49 8 1005 0 6 SO 0 92.9 585
01:10:49 8 1006 0 2 SW 0 92.8 588
01:13:48 8 1005 0 4 S 0 92.7 592
01:16:47 8 1006 0 3 SO 0 92.6 594
01:19:46 8 1006 0 4 SO 0 92.5 594
01:22:46 8 1006 0 3 O 0 92.3 600
01:25:47 8 1005 0 2 S 0 92.2 590
01:28:45 8 1006 0 5 W 0 92.1 588
01:31:46 8 1005 0 1 SO 0 92.2 586
01:34:47 8 1006 0 2 S 0 92.2 589
01:37:47 8 1005 0 2 S 0 92.2 586
01:40:47 8 1006 0 3 S 0 92.2 594
01:43:47 8 1005 0 1 S 0 92.3 592
01:46:47 8 1005 0 0 SO 0 92.4 603
01:49:48 8 1006 0 0 SO 0 92.4 600
01:52:45 8 1006 0 1 S 0 92.4 601
01:55:48 8 1006 0 0 SW 0 92.5 598
01:58:48 8 1006 0 4 S 0 92.4 600
02:01:48 8 1005 0 2 SW 0 92.2 597
02:04:45 8 1006 0 1 S 0 92.1 594
02:07:46 8 1006 0 2 S 0 91.9 600
02:10:46 8 1006 0 3 S 0 91.7 603
02:13:46 8 1005 0 2 S 0 91.5 604
02:16:44 8 1006 0 1 SO 0 91.4 594
02:19:46 8 1006 0 0 S 0 91.3 605
02:22:45 8 1005 0 2 SW 0 91.3 611
02:25:45 8 1005 0 1 SO 0 91.4 623
02:28:47 8 1006 0 2 SW 0 91.4 618
02:31:45 8 1005 0 1 S 0 91.2 620
02:34:46 8 1004 0 2 SO 0 90.8 615
02:37:47 8 1004 0 0 S 0 90.9 618
02:40:48 8 1005 0 1 S 0 90.5 617
02:43:45 8 1005 0 1 SW 0 90.4 615
02:46:46 8 1005 0 2 S 0 90.3 623
02:49:45 8 1005 0 2 O 0 90 619
02:52:47 8 1005 0 7 S 0 89.8 614
02:55:44 8 1005 0 5 O 0 89.3 614
02:58:45 8 1004 0 3 O 0 88.8 614
03:01:48 8 1004 0 2 NO 0 88.1 612
03:04:46 8 1005 0 2 S 0 87.8 614
03:07:48 8 1005 0 2 S 0 87.4 611
03:10:48 8 1004 0 4 SW 0 87.4 613
03:13:47 8 1004 0 3 SW 0 87.1 617
03:16:47 8 1004 0 2 S 0 86.8 631
03:19:46 8 1004 0 2 W 0 86.6 637
03:22:48 8 1004 0 5 SW 0 86.6 636
03:25:48 8 1004 0 4 SW 0 86.6 638
03:28:47 8 1004 0 4 SW 0 86.6 629
03:31:48 8 1004 0 2 SO 0 86.1 630
03:34:46 8 1004 0 1 SW 0 86 623
03:37:49 8 1004 0 3 SW 0 85.8 621
03:40:48 8 1003 0 3 SO 0 85.4 620
03:43:47 8 1003 0 3 SO 0 85.5 620
03:46:47 8 1003 0 3 SO 0 85.7 615
03:49:47 8 1003 0 5 S 0 85.6 623
03:52:49 8 1003 0 2 S 0 85.6 620
03:55:47 8 1003 0 3 S 0 85.7 620
03:58:45 8 1004 0 7 O 0 85.8 626
04:01:47 8 1003 0 6 S 0 85.8 632
04:04:46 8 1003 0 5 S 0 86.1 629
04:07:47 8 1003 0 1 SO 0 85.8 619
04:10:49 8 1003 0 3 SO 0 86.3 624
04:13:46 8 1003 0 3 S 0 86.3 623
04:16:45 8 1003 0 1 W 0 86.2 627
04:19:49 8 1003 0 0 S 0 86.2 633
04:22:47 8 1003 0 2 SO 0 86.5 635
04:25:46 8 1002 0 2 NW 0 86.4 635
04:28:48 8 1003 0 3 SO 0 86.6 635
04:31:46 8 1003 0 4 SW 0 86.5 630
04:34:47 8 1003 0 7 SO 0 86.4 635
04:37:46 8 1002 0 2 NO 0 86.1 635
04:40:48 8 1002 0 1 S 0 85.6 630
04:43:48 8 1003 0 1 SW 0 85.6 630
04:46:47 8 1002 0 2 SW 0 85.5 624
04:49:46 8 1002 0 3 S 0 85.3 622
04:52:47 8 1002 0 8 O 0 85.4 627
04:55:45 8 1003 0 3 S 0 85.5 621
04:58:46 8 1002 0 3 SO 0 85.6 623
05:01:48 8 1002 0 3 S 0 85.8 630
05:04:47 8 1002 0 1 S 0 85.8 632
05:07:46 8 1002 0 4 SO 0 85.9 632
05:10:49 8 1002 0 5 SO 0 86.4 633
05:13:47 8 1002 0 4 S 0 86.3 641
05:16:45 8 1002 0 1 S 0 86.4 648
05:19:47 8 1002 0 5 S 0 86.3 648
05:22:48 8 1002 0 3 S 0 86.2 648
05:25:46 8 1002 0 5 SO 0 86.4 644
05:28:48 8 1002 0 3 SO 0 86.6 648
05:31:47 8 1002 0 0 SO 0 86.8 656
05:34:49 8 1002 0 3 SO 0 87 656
05:37:49 8 1002 0 1 SO 0 86.7 648
05:40:48 8 1002 0 5 SO 0 86.5 638
05:43:48 8 1002 0 7 SO 0 86.5 648
05:46:49 8 1002 0 1 SO 0 86.5 648
05:49:47 8 1002 0 6 S 0 86.9 642
05:52:46 8 1002 0 2 S 0 86.8 641
05:55:47 8 1002 0 3 SO 0 86.6 645
05:58:47 7 1002 0 2 S 0 86.9 645
06:01:49 7 1002 0 2 SO 0 86.9 653
06:04:45 7 1002 0 4 SO 0 87 644
06:07:48 7 1002 0 1 SO 0 87.2 647
06:10:48 7 1002 0 2 SO 0 87.4 648
06:13:47 7 1002 0 1 SO 0 87.9 649
06:16:47 7 1002 0 4 S 0 87.9 656
06:19:47 7 1002 0 2 SO 0 87.8 652
06:22:49 7 1002 0 2 SO 0 88 651
06:25:47 7 1002 0 1 SW 0 88.1 641
06:28:50 7 1002 0 0 SO 0 88.3 634
06:31:47 7 1002 0 0 S 0 88.5 644
06:34:46 7 1002 0 1 S 0 88.7 648
06:37:46 7 1002 0 1 SO 0 89 650
06:40:51 7 1002 0 0 SO 0 89.1 642
06:43:46 7 1002 0 0 SO 0 89.2 651
06:46:48 7 1002 0 0 SO 0 89.3 651
06:49:50 7 1002 0 0 SO 0 89.3 655
06:52:49 7 1002 0 4 S 0 89.4 649
06:55:54 7 1002 0 1 SO 0 89.6 642
06:58:50 7 1002 0 0 SO 0 89.7 640
07:01:49 7 1002 0 1 S 0 89.9 646
07:04:47 7 1002 0 0 SO 0 90 641
07:07:49 7 1002 0 1 SO 0 90.1 638
07:10:47 7 1001 0 3 S 0 90.1 630
07:13:47 7 1002 0 1 SO 0 90.1 625
07:16:47 7 1002 0 2 SO 0 90.1 618
07:19:48 7 1002 0 0 SO 0 90.1 612
07:22:46 7 1002 4 0 S 0 90.3 602
07:25:48 7 1002 6 0 SO 0 90.3 635
07:28:51 7 1002 11 0 SO 0 90.4 664
07:31:47 7 1002 17 0 SO 0 90.4 663
07:34:50 7 1002 26 0 SO 0 90.5 659
07:37:49 7 1002 34 0 SO 0 90.5 664
07:40:46 7 1002 46 0 SO 0 90.5 670
07:43:48 7 1002 56 1 SO 0 90.5 656
07:46:49 7 1002 61 0 SO 0 90.7 657
07:49:49 7 1002 63 1 SO 0 90.8 654
07:52:47 6 1002 67 2 SO 0 91.1 653
07:55:48 6 1002 73 3 SO 0 91.7 655
07:58:46 7 1002 79 1 S 0 91.8 659
08:01:48 7 1002 82 1 S 0 92 664
08:04:49 7 1002 82 2 S 0 91.9 672
08:07:51 7 1002 81 1 S 0 91.8 672
08:10:48 7 1002 86 1 S 0 92 670
08:13:48 7 1002 93 0 S 0 91.8 670
08:16:48 7 1002 94 1 SO 0 91.7 670
08:19:48 7 1002 104 6 SW 0 91.6 667
08:22:46 7 1002 118 6 SW 0 91.3 661
08:25:47 7 1002 122 3 SO 0 90.8 665
08:28:48 7 1001 124 8 SO 0 90.6 665
08:31:49 7 1002 131 0 W 0 90.6 661
08:34:47 7 1001 136 2 SO 0 90.6 664
08:37:48 7 1001 138 5 SW 0 90.4 661
08:40:52 7 1002 143 5 SO 0 90.3 670
08:43:48 7 1001 147 2 SW 0 90.3 664
08:46:49 7 1000 150 3 SW 0 90.2 667
08:49:48 7 1002 155 3 SO 0 90.2 670
08:52:47 7 1002 157 5 S 0 90.2 668
08:55:46 7 1002 150 5 S 0 90.2 673
08:58:49 7 1002 148 5 SO 0 90.1 673
09:01:55 7 1002 160 9 S 0 90.2 677
09:04:45 7 1001 168 3 S 0 90.3 673
09:07:47 7 1002 173 6 S 0 90.3 673
09:10:51 7 1002 179 3 S 0 90.3 667
09:13:49 7 1001 181 1 SW 0 90.3 667
09:16:49 7 1002 187 6 SW 0 90.4 670
09:19:48 7 1002 187 2 O 0 90.4 670
09:22:48 7 1001 188 4 SW 0 90.6 670
09:25:49 7 1001 187 2 S 0 90.6 670
09:28:48 7 1002 187 3 SO 0 90.8 679
09:31:49 7 1002 192 3 SW 0 90.8 676
09:34:48 7 1002 198 2 S 0 90.7 674
09:37:46 8 1001 198 3 O 0 91.1 671
09:40:46 8 1001 193 2 NO 0 91.2 668
09:43:51 8 1002 195 2 SO 0 90.6 668
09:46:46 8 1002 195 2 SO 0 90.4 670
09:49:46 8 1002 201 0 O 0 90.4 677
09:52:51 8 1001 201 4 SO 0 90.5 676
09:55:47 8 1001 202 2 SW 0 90.1 677
09:58:47 8 1001 204 3 S 0 90 676
10:01:47 8 1001 202 1 W 0 89.6 669
10:04:51 8 1001 198 2 SW 0 90 663
10:07:47 8 1002 195 1 S 0 90 669
10:10:50 8 1002 193 5 W 0 89.6 671
10:13:46 8 1002 191 0 S 0 89.7 673
10:16:49 8 1002 191 5 S 0 90 667
10:19:48 8 1002 192 2 NW 0 89.9 660
10:22:45 8 1001 193 2 S 0 90.2 657
10:25:48 8 1001 188 2 S 0 90.3 656
10:28:47 8 1001 190 4 S 0 90.1 659
10:31:47 8 1001 194 3 S 0 90.3 656
10:34:47 8 1002 196 1 O 0 90.3 656
10:37:47 8 1002 192 3 S 0 90.4 664
10:40:47 8 1002 198 0 S 0 90.5 658
10:43:49 8 1001 195 0 W 0 90.5 662
10:46:47 8 1001 195 6 O 0 90.2 662
10:49:46 8 1001 198 1 O 0 90 670
10:52:49 8 1001 199 2 SO 0 89.8 665
10:55:47 8 1001 195 1 W 0 89.3 671
10:58:49 8 1002 191 2 SW 0 89.8 673
11:01:47 8 1001 188 1 O 0 89.1 676
11:04:47 8 1002 192 5 SO 0 89 670
11:07:49 8 1001 203 1 SO 0 88.9 665
11:10:50 8 1002 198 6 SO 0 88.8 656
11:13:46 8 1001 200 6 S 0 88.5 656
11:16:49 8 1001 198 2 SO 0 87.6 663
11:19:47 8 1001 198 4 SO 0 87.5 665
11:22:47 8 1002 195 1 W 0 87.8 661
11:25:49 8 1001 202 4 SO 0 88.1 665
11:28:48 8 1001 204 2 SW 0 87.8 664
11:31:48 8 1002 207 3 W 0 87.6 653
11:34:49 8 1001 208 6 SW 0 87.6 598
11:37:46 8 1002 211 1 O 0 87.6 597
11:40:47 8 1001 216 3 S 0 87.5 630
11:43:47 8 1001 216 0 SO 0 87.4 647
11:46:47 9 1001 214 6 W 0 87.2 648
11:49:47 9 1001 215 2 S 0 87 651
11:52:47 9 1001 219 0 W 0 87.6 645
11:55:47 9 1001 223 1 0 88.4 645
11:58:48 9 1001 218 18 W 0 88.2 641
12:01:47 9 1001 217 1 SW 0 87.3 644
12:04:48 9 1001 214 0 W 0 87.4 653
12:07:49 9 1001 212 3 SO 0 87.1 652
12:10:51 9 1000 206 2 SW 0 87 656
12:13:50 9 1000 200 4 NW 0 87.6 650
12:16:47 9 1000 143 4 S 0 88.2 648
12:19:49 9 1001 197 6 SW 0 88.9 401
12:22:49 8 1000 196 6 W 0 89.9 407
12:25:47 8 1001 193 5 W 0 90.6 404
12:28:49 8 1003 200 3 SW 0 91.7 407
12:31:47 8 1001 193 3 W 0 93.2 404
12:34:46 8 1001 187 3 O 0 93.6 404
12:37:48 8 1000 198 2 S 0 94.3 404
12:40:48 8 1001 194 9 SW 0 95.3 407
12:43:47 8 1001 197 5 W 0 95.6 404
12:46:48 8 1001 200 12 SW 0 96 404
12:49:49 8 1001 195 5 SO 0 96.6 404
12:52:49 8 1001 200 7 NW 0 96.6 407
12:55:50 8 1000 190 3 SW 0 96.6 407
12:58:49 8 1000 172 4 SW 0 96.6 404
13:01:47 7 1001 176 6 SW 0 96.6 407
13:04:47 7 1001 171 3 W 0 96.6 405
13:07:49 7 1001 155 3 SW 0 96.6 407
13:10:47 7 1002 134 10 W 0 96.6 407
13:13:48 7 1001 157 23 W 0 96.6 407
13:16:48 7 1001 152 12 NW 0 96.4 406
13:19:48 7 1002 157 10 W 0 96.2 404
13:22:48 7 1002 159 2 NW 0 96.1 403
13:25:49 6 1001 160 7 NW 0 96.4 406
13:28:48 6 1001 166 2 NW 0 96.6 405
13:31:49 6 1001 172 4 W 0 96.6 404
13:34:44 6 1001 177 5 W 0 96.6 407
13:37:50 6 1002 180 7 NW 0 96.6 407
13:40:49 6 1001 179 8 NW 0 96.6 422
13:43:47 6 1002 176 5 W 0 96.6 416
13:46:45 6 1001 177 7 W 0 96.5 418
13:49:45 6 1002 183 5 0 96.6 418
13:52:49 7 1002 183 6 NW 0 96.6 430
13:55:49 7 1002 180 15 NW 0 96.5 431
13:58:50 7 1001 170 4 NW 0 96.5 430
14:01:47 7 1002 175 1 SW 0 96.5 424
14:04:50 7 1002 178 3 NW 0 96.5 427
14:07:49 7 1002 182 4 W 0 96.5 428
14:10:49 7 1002 186 10 NW 0 96.5 428
14:13:48 7 1002 184 7 W 0 96.5 428
14:16:47 7 1001 185 1 SW 0 96.6 433
14:19:47 7 1001 186 2 W 0 96.6 431
14:22:46 7 1002 189 5 W 0 96.6 460
14:25:45 7 1002 194 1 S 0 96.6 459
14:28:47 7 1001 199 4 W 0 96.6 462
14:31:46 7 1002 201 5 W 0 96.5 471
14:34:48 7 1002 206 5 W 0 96 477
14:37:48 7 1002 205 1 NO 0 95.6 473
14:40:47 7 1002 196 2 W 0 95.6 477
14:43:47 7 1002 188 5 SW 0 95.5 474
14:46:46 7 1002 175 2 W 0 95.5 480
14:49:49 7 1002 172 3 SW 0 95.3 480
14:52:46 7 1001 192 1 W 0 95.6 483
14:55:47 7 1002 193 0 S 0 95.9 481
14:58:45 7 1001 181 3 S 0 96.2 486
15:01:48 7 1001 182 2 SO 0 96.2 492
15:04:46 7 1001 176 0 S 0 95.8 495
15:07:47 7 1001 174 2 SO 0 95.6 495
15:10:47 7 1002 169 2 SO 0 95.4 497
15:13:51 7 1002 166 0 S 0 95.1 500
15:16:48 7 1002 162 1 SO 0 95.2 497
15:19:46 7 1001 163 1 S 0 95.1 498
15:22:49 7 1001 168 1 SO 0 95 498
15:25:47 7 1001 167 1 SO 0 94.8 503
15:28:47 7 1001 162 0 SO 0 94.8 509
15:31:48 7 1002 166 1 S 0 94.8 509
15:34:47 7 1001 169 1 S 0 94.8 509
15:37:48 7 1002 173 0 S 0 95 515
15:40:46 7 1002 173 4 N 0 95.1 509
15:43:47 7 1002 176 1 W 0 95.2 512
15:46:48 7 1002 188 2 S 0 95.1 504
15:49:50 7 1002 190 2 S 0 95.5 509
15:52:47 7 1002 189 2 W 0 95.6 516
15:55:49 7 1002 179 6 SW 0 95.8 521
15:58:47 7 1002 175 2 W 0 95.7 521
16:01:47 7 1002 173 4 W 0 95.7 524
16:04:47 7 1002 178 3 SO 0 95.5 538
16:07:47 7 1002 190 1 O 0 95.3 553
16:10:48 7 1002 194 1 SO 0 95 568
16:13:47 7 1002 191 2 S 0 95 573
16:16:47 7 1002 176 4 N 0 95 583
16:19:48 7 1002 165 1 NW 0 94.9 589
16:22:49 7 1002 156 5 SW 0 94.6 592
16:25:49 6 1002 143 2 SW 0 94.1 588
16:28:50 6 1002 139 18 W 0 93.5 588
16:31:45 6 1002 143 2 S 0 93.1 592
16:34:50 6 1002 148 5 SO 0 92.8 591
16:37:47 6 1002 139 1 S 0 92.6 582
16:40:47 6 1002 133 2 S 0 93 590
16:43:45 6 1002 132 5 S 0 93.1 573
16:46:48 6 1002 143 5 W 0 93 574
16:49:47 6 1002 119 5 N 0 93.1 562
16:52:47 6 1002 95 2 S 0 93.2 556
16:55:45 6 1003 90 2 S 0 93.4 547
16:58:48 6 1002 91 3 O 0 93.7 550
17:01:49 6 1002 95 2 SO 0 93.9 542
17:04:47 6 1002 94 6 N 0 94.1 539
17:07:45 6 1002 90 0 O 0 94.3 524
17:10:48 6 1002 83 2 NO 0 94.3 525
17:13:47 6 1002 81 1 SO 0 94.4 524
17:16:45 6 1002 81 0 NO 0 94.6 521
17:19:46 6 1002 78 9 S 0 94.7 518
17:22:49 6 1002 72 2 N 0 94.9 516
17:25:46 6 1002 63 0 S 0 95.1 511
17:28:47 6 1002 49 1 SO 0 95.3 509
17:31:46 5 1002 34 2 S 0 95.4 509
17:34:46 5 1002 22 2 SW 0 95.7 511
17:37:48 5 1002 13 3 NW 0 96 495
17:40:46 5 1002 7 1 S 0 96.2 498
17:43:46 5 1002 4 3 SO 0 96.4 497
17:46:48 5 1002 0 1 SO 0 96.4 507
17:49:47 5 1002 0 1 SO 0 96.4 500
17:52:46 5 1002 0 1 S 0 96.6 492
17:55:47 5 1002 0 2 W 0 96.6 483
17:58:47 5 1002 0 1 S 0 96.6 485
18:01:47 5 1002 0 8 W 0 96.6 486
18:04:48 5 1002 0 0 S 0 96.6 480
18:07:49 5 1002 0 0 SO 0 96.6 480
18:10:48 5 1002 0 3 S 0 96.6 478
18:13:46 5 1002 0 1 SO 0 96.6 474
18:16:45 5 1002 0 1 O 0 96.6 471
18:19:48 5 1002 0 2 SO 0 96.6 471
18:22:47 5 1002 0 0 W 0 96.6 463
18:25:45 5 1002 0 1 0 96.6 462
18:28:48 5 1002 0 0 S 0 96.6 462
18:31:47 5 1002 0 1 SO 0 96.6 466
18:34:45 5 1002 0 3 SW 0 96.6 459
18:37:47 5 1002 0 0 SW 0 96.6 460
18:40:49 5 1002 0 2 S 0 96.6 456
18:43:48 5 1002 0 2 O 0 96.6 460
18:46:44 5 1002 0 2 W 0 96.6 447
18:49:48 5 1002 0 2 SO 0 96.6 448
18:52:45 5 1002 0 7 S 0 96.6 445
18:55:46 5 1002 0 1 SW 0 96.6 448
18:58:47 5 1002 0 4 SO 0 96.6 442
19:01:45 5 1002 0 3 S 0 96.6 444
19:04:47 5 1002 0 0 SW 0 96.6 442
19:07:48 5 1002 0 4 NO 0 96.5 442
19:10:57 5 1002 0 1 SW 0 96.5 439
19:13:47 5 1002 0 1 S 0 96.5 438
19:16:45 5 1002 0 2 S 0 96.5 433
19:19:44 5 1002 0 2 0 96.5 427
19:22:48 5 1002 0 3 NW 0 96.6 424
19:25:46 5 1002 0 3 W 0 96.5 419
19:28:47 5 1002 0 3 O 0 96.6 424
19:31:46 5 1002 0 2 W 0 96.6 421
19:34:47 5 1002 0 3 SW 0 96.6 430
19:37:45 5 1002 0 3 O 0 96.6 422
19:40:47 5 1002 0 5 W 0 96.6 430
19:43:48 5 1002 0 4 S 0 96.6 427
19:46:48 5 1002 0 9 S 0 96.6 427
19:49:48 5 1002 0 3 S 0 95.8 424
19:52:44 5 1002 0 3 W 0 95.8 421
19:55:47 5 1002 0 2 W 0 95.8 413
19:58:49 5 1002 0 2 NW 0 95.7 412
20:01:45 5 1002 0 3 O 0 95.3 407
20:04:48 5 1002 0 1 SO 0 94.5 410
20:07:47 5 1002 0 3 W 0 94 410
20:10:48 5 1002 0 4 SW 0 93.8 410
20:13:48 5 1002 0 2 NW 0 93.2 407
20:16:50 5 1002 0 2 SO 0 92.9 407
20:19:47 5 1002 0 1 W 0 93 404
20:22:48 5 1003 0 2 SO 0 93 407
20:25:46 5 1002 0 4 SO 0 93.1 407
20:28:47 5 1002 0 4 O 0 93.2 406
20:31:47 5 1002 0 4 SW 0 93.5 401
20:34:45 5 1003 0 5 S 0 93.7 406
20:37:46 5 1002 0 3 S 0 93.9 404
20:40:48 5 1002 0 2 SW 0 94.2 404
20:43:49 5 1002 0 2 SW 0 94.4 407
20:46:46 5 1002 0 5 SW 0 94.5 407
20:49:46 5 1002 0 1 SW 0 94.8 404
20:52:46 5 1003 0 0 N 0 94.9 404
20:55:47 5 1003 0 0 NW 0 95.1 407
20:58:45 5 1002 0 5 SO 0 95.1 404
21:01:46 5 1003 0 4 SW 0 95.1 407
21:04:45 5 1002 0 1 W 0 94.8 407
21:07:49 5 1003 0 1 SW 0 94.7 407
21:10:45 5 1003 0 2 S 0 94.6 404
21:13:47 5 1002 0 6 O 0 94.5 407
21:16:47 5 1002 0 3 SO 0 94.1 404
21:19:45 5 1003 0 3 SW 0 93.9 406
21:22:46 5 1002 0 1 N 0 93.4 404
21:25:45 5 1002 0 1 W 0 93.2 404
21:28:45 5 1002 0 1 S 0 93.2 405
21:31:48 5 1003 0 3 S 0 93.3 405
21:34:45 5 1003 0 4 0 93.6 404
21:37:47 5 1002 0 3 SW 0 93.8 407
21:40:48 5 1002 0 2 SO 0 93.7 405
21:43:47 5 1002 0 4 SW 0 93.4 407
21:46:47 5 1002 0 4 S 0 93 404
21:49:49 5 1003 0 3 S 0 92.6 408
21:52:46 5 1002 0 1 S 0 92.6 406
21:55:47 5 1003 0 2 W 0 92.3 418
21:58:44 5 1003 0 1 NW 0 92.2 415
22:01:49 5 1002 0 2 NW 0 92.2 407
22:04:46 5 1002 0 9 SO 0 92.2 410
22:07:49 5 1002 0 4 S 0 92 418
22:10:48 4 1003 0 2 SW 0 92 425
22:13:50 4 1002 0 10 SW 0 91.6 430
22:16:46 4 1003 0 2 SW 0 91.5 433
22:19:48 4 1002 0 2 SO 0 91.4 437
22:22:45 4 1002 0 1 S 0 91.1 445
22:25:46 4 1003 0 0 O 0 91.2 444
22:28:47 4 1002 0 0 NO 0 91.5 440
22:31:45 4 1002 0 8 S 0 91.6 448
22:34:47 4 1002 0 2 S 0 91.7 451
22:37:47 4 1003 0 2 SO 0 91.7 457
22:40:46 4 1002 0 1 W 0 91.8 463
22:43:47 4 1002 0 5 SO 0 92 454
22:46:47 4 1002 0 5 SO 0 92.2 460
22:49:47 4 1002 0 2 S 0 92.5 465
22:52:47 4 1002 0 2 S 0 93.2 477
22:55:44 4 1002 0 1 S 0 93.5 476
22:58:45 4 1002 0 0 W 0 94.1 477
23:01:49 4 1002 0 2 SO 0 94.3 480
23:04:49 4 1002 0 1 SW 0 94.6 483
23:07:47 4 1003 0 1 S 0 94.9 489
23:10:46 4 1002 0 1 S 0 95.1 495
23:13:46 4 1002 0 0 O 0 95.3 496
23:16:48 4 1002 0 6 SO 0 95.3 498
23:19:49 4 1002 0 2 SW 0 95.5 506
23:22:45 4 1002 0 2 N 0 95.7 505
23:25:49 4 1002 0 2 NW 0 95.8 504
23:28:46 4 1002 0 1 NW 0 95.7 509
23:31:47 4 1002 0 1 S 0 95.6 509
23:34:47 4 1002 0 3 O 0 95.7 515
23:37:47 4 1003 0 0 N 0 96.1 521
23:40:45 4 1002 0 3 S 0 96.1 527
23:43:48 4 1002 0 3 W 0 96.5 536
23:46:47 4 1002 0 4 SW 0 96.5 536
23:49:48 4 1002 0 3 SW 0 96.6 541
23:52:47 4 1002 0 1 SW 0 96.6 539
23:55:47 4 1003 0 2 SO 0 96.6 553
23:58:46 4 1002 0 2 S 0 96.6 559

Letzte Änderung : 22-Jul-2022
Copyright Jens Köhler, Wolfsburg, Obere Dorfstraße 10d